Other Surface Observations
Issued by NWS Tucson, AZ

Home | Current Version | Previous Version | Text Only | Print | Product List | Glossary On
Versions: 1 2 3 4 5 6 7 8 9 10 11 12 13 14 15 16 17 18 19 20 21 22 23 24 25 26 27 28 29 30 31 32 33 34 35 36 37 38 39 40 41 42 43 44 45 46 47 48 49 50
000
SXUS55 KTWC 261615
OSOTWC

WEATHER ROUNDUP FOR SOUTHEAST ARIZONA
NATIONAL WEATHER SERVICE TUCSON AZ
915 AM MST FRI DEC 26 2014

AZZ504>506-514-261715-
LOCATION       SKY/WX    TMP DP  RH WIND       PRES   REMARKS
TUCSON         SUNNY     41  27  57 S3        30.01R
DAVIS-MONTHAN  SUNNY     42  28  57 S3        29.99R
CHILDRENS PARK N/A       35  26  69 NW2               PIMA CO DEQ
ALVERNON/22ND  N/A      N/A N/A N/A N/A               PIMA CO DEQ
CHERRY/GLENN   N/A      N/A N/A N/A N/A               PIMA CO DEQ
TANGERINE      N/A       31 N/A N/A NE5               PIMA CO DEQ
CONTL RANCH    N/A       34  30  84 SE2               PIMA CO DEQ
GRANT/1ST      N/A       38  23  55 W2                PIMA CO DEQ
CRAYCROFT/22ND N/A      N/A N/A N/A N/A               PIMA CO DEQ
GOLFLINKS/KOLB N/A       39  25  58 S3                PIMA CO DEQ
AJO/12TH       N/A       36  32  84 S6                PIMA CO DEQ
SAGUARO EAST   N/A      N/A N/A N/A N/A               PIMA CO DEQ
FAIRGROUNDS    N/A       36 N/A N/A S3                PIMA CO DEQ
SAGUARO        N/A       33  28  80 E2                *SABINO CYN
SAN CARLOS     N/A       31  21  66 NW3G10            *SAN CARLOS
GREEN VALLEY   N/A       38  20  47 NW3               PIMA CO DEQ
HORSE CAMP CYN N/A       33  13  44 E3                *ARAVAIPA CYN
RINCON MTNS    N/A       17   6  61 W5G18             *NR MANNING CAMP
$$

AZZ509>511-261715-
LOCATION       SKY/WX    TMP DP  RH WIND       PRES   REMARKS
SAFFORD        SUNNY     40  16  37 NW9       29.94R WCI  34
STRAY HORSE    N/A       17   1  49 W13G28            *
TRAIL CABIN    N/A       26  11  53 SW3               *N OF GRANVILLE
BLACK HILLS    N/A       40  14  34 N5                *N OF FT THOMAS
DRY LAKE       N/A       19   4  52 W6G14             *NATANES MTNS
NOON CREEK     N/A       30  10  43 NE4G10            *PINALENO MTNS
COLUMBINE      N/A       12  -4  47 S13G29            *PINALENO MTNS
GUTHRIE        N/A       23  10  58 NW13G32           *SW OF GUTHRIE
$$

AZZ502-503-513-261715-
LOCATION       SKY/WX    TMP DP  RH WIND       PRES   REMARKS
NOGALES        PTSUNNY   39  34  82 CALM      29.98R
SELLS          N/A       37  31  78 E4                *
SASABE         N/A       31  29  91 W4                *ALTAR VLY
HOPKINS        N/A       22  13  69 W13G21            *SANTA RITA MTNS
CARR CYN       N/A       34  20  55 N2                *W OF HEREFORD
$$

AZZ507-508-512-261715-
LOCATION       SKY/WX    TMP DP  RH WIND       PRES   REMARKS
SIERRA VISTA   PTSUNNY   36  20  52 W7        29.96R WCI  30
DOUGLAS        PTSUNNY   40  28  62 NW10      29.97R WCI  33
EMPIRE MTNS    N/A       36  15  41 NW6G11            *LAS CIENEGAS NCA
MULESHOE RANCH N/A       31  15  52 NE3               *PRESERVE
HEADQUARTERS   N/A       31  26  80 W3G11             *CHIRICAHUA MTNS
$$

.............................NOTES.............................
THIS IS AN AUTOMATED COLLECTIVE WITH MINIMAL QUALITY CONTROL.
PIMA CO DEQ SITES HAVE NONSTANDARD WIND SENSOR HEIGHTS.
PIMA CO DEQ SITES DO NOT REPORT WIND GUSTS.
* INDICATES WIND SENSORS LOCATED AT 20 FEET INSTEAD OF 33 FEET.
..............................KEY..............................
SKY/WX - SKY CONDITION/WEATHER
TMP    - TEMPERATURE IN FAHRENHEIT
DP     - DEWPOINT IN FAHRENHEIT
RH     - RELATIVE HUMIDITY IN PERCENT
WIND   - DIRECTION AND SPEED IN MILES PER HOUR (MPH)
VRB    - VARIABLE WIND DIRECTION
PRES   - MEAN SEA LEVEL PRESSURE IN INCHES OF MERCURY
         F - FALLING PRESSURE   R - RISING PRESSURE
         S - STEADY PRESSURE
VSB    - VISIBILITY IN MILES
HX     - HEAT INDEX IN FAHRENHEIT
WCI    - WIND CHILL INDEX IN FAHRENHEIT
N/A    - NOT AVAILABLE
AFB    - AIR FORCE BASE
         DAVIS-MONTHAN IS DAVIS-MONTHAN AIR FORCE BASE
CYN    - CANYON
MTNS   - MOUNTAINS
NCA    - NATIONAL CONSERVATION AREA
NR     - NEAR
VLY    - VALLEY
CONTL  - CONTINENTAL
PIMA CO DEQ - PIMA COUNTY DEPT OF ENVIRONMENTAL QUALITY



USA.gov is the U.S. government's official web portal to all federal, state and local government web resources and services.